Regional Weather Roundup
Issued by NWS

Home | Current Version | Previous Version | Graphics & Text | Print | Product List | Glossary On
Versions: 1 2 3 4 5 6 7 8 9 10 11 12 13 14 15 16 17 18 19 20 21 22 23 24 25 26 27 28 29 30 31 32 33 34 35 36 37 38 39 40 41 42 43 44 45 46 47 48 49 50
000
ASUS43 KLMK 012210
RWRKY
KENTUCKY REGIONAL WEATHER ROUNDUP
NATIONAL WEATHER SERVICE LOUISVILLE KY
600 PM EDT MON SEP 01 2014

NOTE "FAIR" INDICATES FEW OR NO CLOUDS BELOW 12,000 FEET
WITH NO SIGNIFICANT WEATHER AND/OR OBSTRUCTIONS TO VISIBILITY.

KYZ001>023-026-027-061>063-070>075-012300-
WESTERN AND SOUTH CENTRAL KENTUCKY

CITY           SKY/WX    TMP DP  RH WIND       PRES   REMARKS
PADUCAH        CLOUDY    88  73  61 SW13      29.93R HX  95
HENDERSON      CLOUDY    84  72  65 W7        29.93S
OWENSBORO      PTSUNNY   84  73  70 SW14      29.95R HX  91
HOPKINSVILLE   PTSUNNY   86  73  65 S17G24    29.93F HX  92
BOWLING GREEN  PTSUNNY   87  69  54 SW17G24   29.95F HX  91
GLASGOW        PTSUNNY   86  69  55 S10G17    29.96F HX  90
$$

KYZ024-025-028>034-038-045-046-053-012300-
NORTH CENTRAL KENTUCKY

CITY           SKY/WX    TMP DP  RH WIND       PRES   REMARKS
LOUISVILLE/SDF CLOUDY    87  71  58 SW15G24   29.93S HX  93
LOUISVILLE/LOU CLOUDY    85  70  60 S9G21     29.94R
FORT KNOX      CLOUDY    84  71  64 S12G22    29.95S
$$

KYZ035>037-039>044-047>052-055>060-089>105-012300-
NORTHEAST KENTUCKY

CITY           SKY/WX    TMP DP  RH WIND       PRES   REMARKS
LEXINGTON      LGT RAIN  80  73  79 W13       29.99S
COVINGTON      PTSUNNY   84  70  62 S12       29.93S
FRANKFORT      PTSUNNY   84  73  69 S9        29.96S HX  90
$$

KYZ054-064>069-076>088-106>120-012300-
SOUTHEAST KENTUCKY

CITY           SKY/WX    TMP DP  RH WIND       PRES   REMARKS
JACKSON        MOSUNNY   85  69  58 CALM      30.03F
LONDON         SUNNY     89  65  44 SW12      30.04S HX  91
SOMERSET       MOSUNNY   86  63  45 SW7G16    30.03S
MIDDLESBORO    SUNNY     87  69  55 S10       30.06S HX  92
MONTICELLO     CLEAR     87  69  54 SW8       30.04S HX  91
$$



USA.gov is the U.S. government's official web portal to all federal, state and local government web resources and services.